Regional Weather Roundup
Issued by NWS

Home | Current Version | Previous Version | Graphics & Text | Print | Product List | Glossary On
Versions: 1 2 3 4 5 6 7 8 9 10 11 12 13 14 15 16 17 18 19 20 21 22 23 24 25 26 27 28 29 30 31 32 33 34 35 36 37 38 39 40 41 42 43 44 45 46 47 48 49 50
000
ASUS43 KLOT 180603
RWRIL

ILLINOIS REGIONAL WEATHER ROUNDUP
NATIONAL WEATHER SERVICE CHICAGO/ROMEOVILLE IL
1200 AM CST SAT NOV 18 2017

NOTE: "FAIR" INDICATES FEW OR NO CLOUDS BELOW 12,000 FEET WITH NO
SIGNIFICANT WEATHER AND/OR OBSTRUCTIONS TO VISIBILITY.

* THESE STATIONS ARE NOT UNDER NWS QUALITY CONTROL. THEY ALSO MAY NOT
  REPORT WEATHER SUCH AS PRECIPITATION OR FOG.

ILZ001-002-007-009-015-016-024-180700-
NORTHWEST ILLINOIS

CITY           SKY/WX    TMP DP  RH WIND       PRES   REMARKS
MOLINE         CLOUDY    51  46  83 N3        29.53S
6HR MIN TEMP:  46; 6HR MAX TEMP:  52;

STERLING*        N/A    N/A N/A N/A MISG        N/A
SAVANNA*       CLOUDY    42  42  99 CALM      29.58R FOG
$$

ILZ003-004-008-010-011-017-018-180700-
NORTH CENTRAL ILLINOIS

CITY           SKY/WX    TMP DP  RH WIND       PRES   REMARKS
ROCKFORD       DRIZZLE   43  42  97 NE6       29.59F FOG
6HR MIN TEMP:  40; 6HR MAX TEMP:  43; 6HR PCP:  0.19;

FREEPORT*      CLOUDY    40  40 100 CALM      29.59R FOG
ROCHELLE*      DRIZZLE   43  43 100 N6        29.57R
DE KALB*       DRIZZLE   45  45  99 NW6       29.58R
PERU*          CLOUDY    47  46  94 S7        29.55S FOG
$$

ILZ005-006-012>014-019>023-180700-
NORTHEAST ILLINOIS

CITY           SKY/WX    TMP DP  RH WIND       PRES   REMARKS
CHICAGO-OHARE  CLOUDY    48  45  89 SW8       29.55F FOG
6HR MIN TEMP:  42; 6HR MAX TEMP:  48; 6HR PCP:  0.11;

CHICAGO-MIDWAY DRIZZLE   48  47  96 SW9       29.56F FOG
6HR MIN TEMP:  43; 6HR MAX TEMP:  48; 6HR PCP:  0.16;

AURORA         CLOUDY    48  47  96 SW8       29.56F FOG
6HR MIN TEMP:  42; 6HR MAX TEMP:  48; 6HR PCP:  0.08;

LANSING*       DRIZZLE   47  46  97 SW10      29.58F
JOLIET*        CLOUDY    49  47  92 SW5       29.56F
WAUKEGAN       LGT RAIN  44  44 100 NW3       29.58S FOG
6HR MIN TEMP:  42; 6HR MAX TEMP:  45; 6HR PCP:  0.18;

DUPAGE AIRPORT CLOUDY    46  46 100 S7        29.55F FOG
6HR MIN TEMP:  40; 6HR MAX TEMP:  46; 6HR PCP:  0.12;

KANKAKEE*      CLOUDY    48  44  85 S14G20    29.57F
WHEELING       LGT RAIN  47  47 100 NW6       29.59R FOG
6HR MIN TEMP:  43; 6HR MAX TEMP:  47; 6HR PCP:  0.10;

MORRIS*        CLOUDY    49  46  90 SW5       29.55S
ROMEOVILLE*    CLOUDY    47  46  93 SW7       29.56F FOG
NORTHERLY ISL    N/A     47  44  90 SW3         N/A
$$

LMZ740>746-180700-
SOUTHERN LAKE MICHIGAN

STATION/POSITION SKY/WX   TEMP    WIND        PRES    VSBY  WAVE
                          AIR SEA DIR/SP/G                  HT/PER
                          (F)     (DEG/KT/KT) (MB)    (MI)  (FT/S)
SOUTHERN BUOY              46 50  240/ 16/ 19 1002.6          6/ 7
HARRISON CRIB              48     220/ 18/ 21   N/A
BURNHAM HARBOR             47     230/  2/ 10   N/A
BURNS HARBOR               46     200/ 11/ 15 1002.4F
MICHIGAN CITY              44     170/ 10/ 14   N/A
$$

ILZ025>027-034>036-040-047-049-050-058-095>099-180700-
WEST-CENTRAL ILLINOIS

CITY           SKY/WX    TMP DP  RH WIND       PRES   REMARKS
QUINCY         MOCLDY    56  52  86 SE7       29.48F
GALESBURG*     RAIN      53  50  91 S7        29.54F
MACOMB*        CLOUDY    53  50  90 S5        29.53F
JACKSONVILLE*  CLOUDY    57  52  84 S10       29.52F
PITTSFIELD*    MOCLDY    59  56  91 S10       29.51F
$$

ILZ028>032-037-038-041>044-048-051>054-059>061-180700-
CENTRAL ILLINOIS

CITY           SKY/WX    TMP DP  RH WIND       PRES   REMARKS
PONTIAC        CLOUDY    50  49  95 S13       29.56F
BLOOMINGTON    LGT RAIN  51  47  86 S13       29.56F
DECATUR        CLOUDY    54  47  77 S15       29.57F
PEORIA         CLOUDY    51  48  89 S9        29.54F
6HR MIN TEMP:  47; 6HR MAX TEMP:  52; 6HR PCP:  0.01;

LACON*         CLOUDY    49  47  90 S5        29.53F
LINCOLN*       CLOUDY    51  48  88 S12       29.55F
SPRINGFIELD    CLOUDY    56  50  80 S13       29.54F
6HR MIN TEMP:  52; 6HR MAX TEMP:  56; 6HR PCP: TRACE;

TAYLORVILLE    CLOUDY    55  49  82 S13       29.55F
6HR MIN TEMP:  47; 6HR MAX TEMP:  55;

$$

ILZ033-039-045-046-055>057-062-063-180700-
EAST-CENTRAL ILLINOIS

CITY           SKY/WX    TMP DP  RH WIND       PRES   REMARKS
CHAMPAIGN      CLOUDY    52  46  80 S17       29.58F
DANVILLE*      CLOUDY    53  43  70 S17G29    29.57F
RANTOUL*       CLOUDY    52  47  81 S15       29.57F
MATTOON        CLOUDY    54  46  74 S14       29.59F
PARIS*         CLOUDY    54  46  72 S21       29.61F
$$

ILZ079-100>102-180700-
SOUTHWEST ILLINOIS

CITY           SKY/WX    TMP DP  RH WIND       PRES   REMARKS
ALTON          CLOUDY    60  56  88 S10       29.56F
BELLEVILLE     CLOUDY    61  55  82 S12       29.56F
CAHOKIA*       CLOUDY    62  55  77 S6        29.56F
SPARTA*        MOCLDY    63  56  79 S17G23    29.62F
$$

ILZ064>066-069>071-074>076-080>082-084>086-088>090-092>094-180700-
SOUTH-CENTRAL ILLINOIS

CITY           SKY/WX    TMP DP  RH WIND       PRES   REMARKS
CARBONDALE     CLOUDY    65  56  72 S21G31    29.65F
6HR MIN TEMP:  58; 6HR MAX TEMP:  65;

CAIRO*         CLOUDY    64  55  74 S15G22    29.69F
EFFINGHAM*     CLOUDY    57  49  74 SE13G22   29.62F
MARION         CLOUDY    65  55  71 S17       29.67F
MT. VERNON     CLOUDY    63  54  72 S15       29.64F
CENTRALIA*     CLOUDY    63  56  77 S18G25    29.61F
SALEM*         CLOUDY    63  53  70 S14G22    29.61F
METROPOLIS*    CLOUDY    66  55  67 S14G21    29.71S
$$

ILZ067-068-072-073-078-083-087-091-180700-
SOUTHEAST ILLINOIS

CITY           SKY/WX    TMP DP  RH WIND       PRES   REMARKS
LAWRENCEVILLE  CLOUDY    57  43  59 S21       29.67F
FLORA*         CLOUDY    58  50  74 S16       29.63F
FAIRFIELD*     CLOUDY    58  52  78 S8        29.65F
HARRISBURG*    CLOUDY    64  55  71 S15       29.69S
ROBINSON*      CLOUDY    56  43  61 S15G22    29.65F
CARMI*         CLOUDY    60  51  72 S15       29.68F
$$

ABBREVIATIONS USED IN REMARKS
   TC - TEMPERATURE IN CELSIUS
  WCI - WIND CHILL INDEX
   HX - HEAT INDEX
  VSB - VISIBILITY
$$




USA.gov is the U.S. government's official web portal to all federal, state and local government web resources and services.